FW9676 Weather Reports


Display with metric or nautical units.
time (UTC)temp
F
wind
direction
speed
MPH
gust
MPH
rain 1hr
in
rain 24hr
in
rain mn
in
humidity
%
barometer
mb
20260901014540 71 227 4.0 11.0 0.00 0.00 0.00 83 1012.3
20260901014019 71 257 5.0 12.0 0.00 0.00 0.00 83 1012.2
20260901013516 71 230 4.0 12.0 0.00 0.00 0.00 83 1012.3
20260901013041 71 300 3.0 12.0 0.00 0.00 0.00 83 1012.3
20260901012517 71 262 3.0 11.0 0.00 0.00 0.00 83 1012.3
20260901012018 71 231 4.0 11.0 0.00 0.00 0.00 83 1012.5
20260901011537 71 271 4.0 11.0 0.00 0.00 0.00 82 1012.5
20260901011020 71 259 3.0 11.0 0.00 0.00 0.00 83 1012.4
20260901010520 71 229 5.0 12.0 0.00 0.00 0.00 82 1012.4
20260901010037 72 238 6.0 12.0 0.00 0.00 0.00 82 1012.5
20260901005518 72 224 6.0 12.0 0.00 0.00 0.00 81 1012.7
20260901005020 73 220 6.0 12.0 0.00 0.00 0.00 81 1012.6
20260901004539 73 259 5.0 14.0 0.00 0.00 0.00 81 1012.7
20260901004018 73 217 6.0 14.0 0.00 0.00 0.00 80 1012.7
20260901003516 73 275 5.0 12.0 0.00 0.00 0.00 80 1012.6
20260901003036 73 266 6.0 12.0 0.00 0.00 0.00 80 1012.7
20260901002518 74 225 5.0 11.0 0.00 0.00 0.00 80 1012.7
20260901002016 73 252 5.0 13.0 0.00 0.00 0.00 81 1012.6
20260901001548 74 196 7.0 14.0 0.00 0.00 0.00 80 1012.7
20260901001019 74 226 8.0 14.0 0.00 0.00 0.00 79 1012.6
20260901000517 74 218 7.0 14.0 0.00 0.00 0.00 79 1012.6
20260901000036 74 263 6.0 14.0 0.00 0.00 0.00 80 1012.5
20260831235523 74 219 7.0 13.0 0.00 0.00 0.00 80 1012.7
20260831235019 75 275 6.0 15.0 0.00 0.00 0.00 80 1012.7
20260831234538 75 237 8.0 15.0 0.00 0.00 0.00 79 1012.6
20260831234019 75 270 6.0 14.0 0.00 0.00 0.00 80 1012.7
20260831233519 75 234 8.0 14.0 0.00 0.00 0.00 79 1012.6
20260831233034 75 235 7.0 17.0 0.00 0.00 0.00 80 1012.5
20260831232518 76 231 7.0 17.0 0.00 0.00 0.00 79 1012.6
20260831232018 76 219 7.0 17.0 0.00 0.00 0.00 78 1012.6
20260831231536 76 252 6.0 14.0 0.00 0.00 0.00 79 1012.5
20260831231021 76 238 5.0 14.0 0.00 0.00 0.00 78 1012.5
20260831230520 76 242 7.0 16.0 0.00 0.00 0.00 78 1012.5
20260831230037 76 275 7.0 16.0 0.00 0.00 0.00 79 1012.5
20260831225515 76 233 7.0 14.0 0.00 0.00 0.00 79 1012.5
20260831225022 76 236 8.0 17.0 0.00 0.00 0.00 78 1012.4
20260831224534 76 212 7.0 17.0 0.00 0.00 0.00 79 1012.6
20260831224018 76 271 7.0 14.0 0.00 0.00 0.00 78 1012.7
20260831223519 76 215 8.0 16.0 0.00 0.00 0.00 77 1012.7
20260831223034 76 225 6.0 16.0 0.00 0.00 0.00 77 1012.8
20260831222516 76 272 8.0 17.0 0.00 0.00 0.00 76 1012.8
20260831222028 77 215 8.0 17.0 0.00 0.00 0.00 76 1012.9
20260831221543 77 211 6.0 18.0 0.00 0.00 0.00 75 1013.0
20260831221017 77 230 8.0 18.0 0.00 0.00 0.00 76 1013.0
20260831220519 77 236 8.0 17.0 0.00 0.00 0.00 76 1013.1
20260831220037 77 237 6.0 16.0 0.00 0.00 0.00 75 1013.1
20260831215517 77 273 8.0 16.0 0.00 0.00 0.00 76 1013.1
20260831215017 77 240 8.0 16.0 0.00 0.00 0.00 75 1013.2
20260831214535 77 240 9.0 17.0 0.00 0.00 0.00 75 1013.2
20260831214016 76 276 7.0 17.0 0.00 0.00 0.00 76 1013.2
20260831213518 76 263 8.0 16.0 0.00 0.00 0.00 75 1013.3
20260831213047 77 266 7.0 15.0 0.00 0.00 0.00 75 1013.3
20260831212520 77 219 7.0 14.0 0.00 0.00 0.00 75 1013.4
20260831212021 77 265 7.0 16.0 0.00 0.00 0.00 75 1013.4
20260831211538 77 279 7.0 16.0 0.00 0.00 0.00 75 1013.4
20260831211018 77 230 8.0 16.0 0.00 0.00 0.00 75 1013.5
20260831210522 77 261 7.0 15.0 0.00 0.00 0.00 74 1013.5
20260831210036 78 241 6.0 18.0 0.00 0.00 0.00 75 1013.5
20260831205517 77 229 6.0 18.0 0.00 0.00 0.00 75 1013.5
20260831205017 76 230 9.0 18.0 0.00 0.00 0.00 75 1013.5
20260831204533 77 215 7.0 16.0 0.00 0.00 0.00 75 1013.5
20260831204019 77 281 8.0 16.0 0.00 0.00 0.00 75 1013.6
20260831203517 77 261 7.0 16.0 0.00 0.00 0.00 75 1013.5
20260831203036 77 217 7.0 16.0 0.00 0.00 0.00 75 1013.6
20260831202518 77 245 6.0 16.0 0.00 0.00 0.00 75 1013.6
20260831202018 77 241 6.0 16.0 0.00 0.00 0.00 76 1013.6
20260831201535 77 259 6.0 16.0 0.00 0.00 0.00 75 1013.6
20260831201016 77 278 6.0 14.0 0.00 0.00 0.00 76 1013.6
20260831200519 77 277 5.0 14.0 0.00 0.00 0.00 76 1013.6
20260831200039 77 300 6.0 13.0 0.00 0.00 0.00 75 1013.6
20260831195521 77 245 5.0 13.0 0.00 0.00 0.00 75 1013.6
20260831195017 77 225 6.0 12.0 0.00 0.00 0.00 74 1013.6
20260831194535 77 243 5.0 12.0 0.00 0.00 0.00 75 1013.6
20260831194016 77 217 5.0 13.0 0.00 0.00 0.00 75 1013.7
20260831193518 77 273 6.0 13.0 0.00 0.00 0.00 74 1013.9
20260831193035 77 275 7.0 12.0 0.00 0.00 0.00 74 1013.8
20260831192517 77 257 6.0 12.0 0.00 0.00 0.00 75 1013.8
20260831192020 77 273 5.0 15.0 0.00 0.00 0.00 75 1013.8
20260831191543 77 246 6.0 16.0 0.00 0.00 0.00 75 1013.9
20260831191019 77 227 5.0 16.0 0.00 0.00 0.00 74 1013.8
20260831190519 77 252 5.0 16.0 0.00 0.00 0.00 75 1013.8
20260831190035 77 273 6.0 13.0 0.00 0.00 0.00 75 1013.9
20260831185520 77 271 5.0 9.0 0.00 0.00 0.00 75 1013.9
20260831185018 77 225 4.0 11.0 0.00 0.00 0.00 75 1013.9
20260831184537 76 264 5.0 12.0 0.00 0.00 0.00 76 1013.9
20260831184023 76 249 6.0 12.0 0.00 0.00 0.00 76 1014.0
20260831183522 76 281 5.0 12.0 0.00 0.00 0.00 76 1013.9
20260831183036 76 227 6.0 12.0 0.00 0.00 0.00 76 1013.9
20260831182519 77 227 4.0 12.0 0.00 0.00 0.00 77 1014.0
20260831182021 76 256 4.0 12.0 0.00 0.00 0.00 76 1013.9
20260831181537 76 232 5.0 10.0 0.00 0.00 0.00 77 1013.9
20260831181018 77 263 4.0 11.0 0.00 0.00 0.00 76 1014.0
20260831180518 76 265 5.0 11.0 0.00 0.00 0.00 77 1014.0
20260831180037 76 254 5.0 11.0 0.00 0.00 0.00 78 1014.1
20260831175516 76 239 3.0 8.0 0.00 0.00 0.00 77 1013.9
20260831175017 77 277 3.0 8.0 0.00 0.00 0.00 77 1013.9
20260831174536 76 269 3.0 8.0 0.00 0.00 0.00 77 1013.9
20260831174019 76 235 4.0 8.0 0.00 0.00 0.00 77 1014.0
20260831173519 77 267 4.0 8.0 0.00 0.00 0.00 77 1014.0
20260831173035 76 237 3.0 8.0 0.00 0.00 0.00 78 1013.9
20260831172519 76 237 2.0 9.0 0.00 0.00 0.00 79 1013.9
20260831172023 76 261 5.0 9.0 0.00 0.00 0.00 78 1013.9
20260831171536 76 234 4.0 9.0 0.00 0.00 0.00 79 1013.9
20260831171019 76 244 3.0 8.0 0.00 0.00 0.00 79 1013.9
20260831170516 75 250 3.0 8.0 0.00 0.00 0.00 79 1013.8
20260831170036 76 256 3.0 6.0 0.00 0.00 0.00 78 1013.8
20260831165519 76 256 2.0 6.0 0.00 0.00 0.00 78 1013.8
20260831165019 76 327 2.0 4.0 0.00 0.00 0.00 77 1013.8
20260831164545 75 293 0.0 6.0 0.00 0.00 0.00 78 1013.7
20260831164019 75 174 1.0 6.0 0.00 0.00 0.00 79 1013.7
20260831163516 75 189 2.0 7.0 0.00 0.00 0.00 79 1013.7
20260831163039 75 128 0.0 7.0 0.00 0.00 0.00 79 1013.7
20260831162604 75 150 3.0 7.0 0.00 0.00 0.00 79 1013.7
20260831162021 75 140 2.0 7.0 0.00 0.00 0.00 80 1013.6
20260831161538 74 117 1.0 5.0 0.00 0.00 0.00 80 1013.7
20260831161018 74 76 2.0 5.0 0.00 0.00 0.00 81 1013.5
20260831160520 74 150 1.0 6.0 0.00 0.00 0.00 83 1013.6
20260831160037 73 0 1.0 6.0 0.00 0.00 0.00 85 1013.5
20260831155519 72 113 1.0 4.0 0.00 0.00 0.00 85 1013.6
20260831155018 72 144 2.0 6.0 0.00 0.00 0.00 86 1013.5
20260831154600 72 136 3.0 6.0 0.00 0.00 0.00 86 1013.5
20260831154019 71 143 1.0 3.0 0.00 0.00 0.00 87 1013.5
20260831153520 71 157 1.0 3.0 0.00 0.00 0.00 88 1013.5
20260831153042 71 0 1.0 6.0 0.00 0.00 0.00 88 1013.4
20260831152520 70 71 0.0 6.0 0.00 0.00 0.00 88 1013.5
20260831152018 70 0 0.0 2.0 0.00 0.00 0.00 89 1013.4
20260831151538 69 259 0.0 2.0 0.00 0.00 0.00 89 1013.4
20260831151020 69 0 0.0 2.0 0.00 0.00 0.00 90 1013.3
20260831150516 68 0 0.0 2.0 0.00 0.00 0.00 90 1013.3
20260831150036 68 0 0.0 1.0 0.00 0.00 0.00 91 1013.3
20260831145516 67 0 0.0 1.0 0.00 0.00 0.00 92 1013.3
20260831145020 67 0 0.0 1.0 0.00 0.00 0.00 92 1013.2
20260831144536 67 0 0.0 0.0 0.00 0.00 0.00 93 1013.2
20260831144018 66 0 0.0 0.0 0.00 0.00 0.00 93 1013.1
20260831143519 66 0 0.0 0.0 0.00 0.00 0.00 94 1013.1
20260831143035 66 0 0.0 0.0 0.00 0.00 0.00 94 1013.0
20260831142520 65 0 0.0 0.0 0.00 0.00 0.00 94 1012.9
20260831142020 65 0 0.0 0.0 0.00 0.00 0.00 93 1012.8
20260831141537 65 0 0.0 0.0 0.00 0.00 0.00 93 1012.8
20260831141019 65 0 0.0 0.0 0.00 0.00 0.00 93 1012.8
20260831140519 65 0 0.0 0.0 0.00 0.00 0.00 93 1012.5
20260831140037 65 0 0.0 0.0 0.00 0.00 0.00 93 1012.5
20260831135516 64 0 0.0 0.0 0.00 0.00 0.00 92 1012.5
20260831135019 64 0 0.0 0.0 0.00 0.00 0.00 92 1012.3
20260831134535 64 0 0.0 0.0 0.00 0.00 0.00 92 1012.3
20260831134017 64 0 0.0 0.0 0.00 0.00 0.00 92 1012.3
20260831133517 64 0 0.0 0.0 0.00 0.00 0.00 92 1012.3
20260831133039 65 0 0.0 0.0 0.00 0.00 0.00 92 1012.2
20260831132522 65 0 0.0 0.0 0.00 0.00 0.00 92 1012.2
20260831132046 65 0 0.0 0.0 0.00 0.00 0.00 92 1012.1
20260831131536 65 0 0.0 0.0 0.00 0.00 0.00 92 1012.1
20260831131021 65 0 0.0 0.0 0.00 0.00 0.00 92 1012.1
20260831130519 65 0 0.0 0.0 0.00 0.00 0.00 92 1012.1
20260831130035 65 0 0.0 0.0 0.00 0.00 0.00 92 1012.1
20260831125521 65 0 0.0 0.0 0.00 0.00 0.00 91 1012.1
20260831125018 65 0 0.0 0.0 0.00 0.00 0.00 91 1012.1
20260831124550 65 0 0.0 0.0 0.00 0.00 0.00 91 1012.1
20260831124022 65 0 0.0 0.0 0.00 0.00 0.00 91 1012.0
20260831123517 65 0 0.0 0.0 0.00 0.00 0.00 91 1012.0
20260831123036 65 0 0.0 0.0 0.00 0.00 0.00 91 1011.9
20260831122525 66 0 0.0 0.0 0.00 0.00 0.00 91 1012.0
20260831122021 66 0 0.0 0.0 0.00 0.00 0.00 91 1012.0
20260831121537 66 0 0.0 0.0 0.00 0.00 0.00 91 1011.9
20260831121023 66 0 0.0 0.0 0.00 0.00 0.00 91 1011.9
20260831120521 66 0 0.0 0.0 0.00 0.00 0.00 91 1012.0
20260831120044 66 0 0.0 0.0 0.00 0.00 0.00 90 1012.0
20260831115519 66 0 0.0 0.0 0.00 0.00 0.00 91 1011.9
20260831115015 66 0 0.0 0.0 0.00 0.00 0.00 90 1012.0
20260831114547 66 0 0.0 0.0 0.00 0.00 0.00 90 1012.0
20260831114018 67 0 0.0 0.0 0.00 0.00 0.00 90 1011.9
20260831113518 67 0 0.0 0.0 0.00 0.00 0.00 90 1011.9
20260831113037 67 0 0.0 0.0 0.00 0.00 0.00 90 1012.0
20260831112518 67 0 0.0 0.0 0.00 0.00 0.00 89 1012.0
20260831112018 67 0 0.0 0.0 0.00 0.00 0.00 89 1012.0
20260831111537 67 0 0.0 0.0 0.00 0.00 0.00 90 1012.0
20260831111018 67 0 0.0 0.0 0.00 0.00 0.00 89 1012.0
20260831110518 67 0 0.0 0.0 0.00 0.00 0.00 90 1012.0
20260831110034 68 0 0.0 1.0 0.00 0.00 0.00 89 1012.0
20260831105522 68 0 0.0 1.0 0.00 0.00 0.00 89 1012.0
20260831105018 68 0 0.0 1.0 0.00 0.00 0.00 90 1012.0
20260831104548 68 0 0.0 1.0 0.00 0.00 0.00 89 1012.1
20260831104018 68 259 0.0 1.0 0.00 0.00 0.00 89 1012.1
20260831103519 68 0 0.0 1.0 0.00 0.00 0.00 89 1012.1
20260831103038 68 0 0.0 2.0 0.00 0.00 0.00 89 1012.1
20260831102518 68 0 0.0 2.0 0.00 0.00 0.00 89 1012.0
20260831102022 69 0 0.0 2.0 0.00 0.00 0.00 89 1012.2
20260831101539 69 259 0.0 3.0 0.00 0.00 0.00 89 1012.0
20260831101020 69 0 0.0 3.0 0.00 0.00 0.00 89 1012.1
20260831100519 69 241 0.0 3.0 0.00 0.00 0.00 89 1012.2
20260831100042 69 241 1.0 3.0 0.00 0.00 0.00 89 1012.1
20260831095518 69 0 0.0 3.0 0.00 0.00 0.00 89 1012.1
20260831095016 69 245 1.0 5.0 0.00 0.00 0.00 88 1012.2
20260831094536 69 0 0.0 5.0 0.00 0.00 0.00 88 1012.1
20260831094018 69 0 1.0 5.0 0.00 0.00 0.00 89 1012.1
20260831093524 69 0 1.0 3.0 0.00 0.00 0.00 88 1012.2
20260831093042 68 264 1.0 3.0 0.00 0.00 0.00 87 1012.1
20260831092519 68 263 0.0 1.0 0.00 0.00 0.00 87 1012.1
20260831092020 68 0 0.0 0.0 0.00 0.00 0.00 87 1012.1
20260831091534 68 0 0.0 0.0 0.00 0.00 0.00 87 1012.2
20260831091021 68 0 0.0 2.0 0.00 0.00 0.00 87 1012.1
20260831090518 68 0 0.0 2.0 0.00 0.00 0.00 87 1012.1
20260831090035 68 0 0.0 0.0 0.00 0.00 0.00 86 1012.1
20260831085516 68 0 0.0 0.0 0.00 0.00 0.00 86 1012.1
20260831085018 68 0 0.0 0.0 0.00 0.00 0.00 86 1012.0
20260831084535 68 0 0.0 0.0 0.00 0.00 0.00 86 1012.1
20260831084019 69 0 0.0 0.0 0.00 0.00 0.00 85 1012.0
20260831083520 69 0 0.0 0.0 0.00 0.00 0.00 85 1012.1
20260831083046 69 0 0.0 0.0 0.00 0.00 0.00 85 1012.1
20260831082521 69 0 0.0 1.0 0.00 0.00 0.00 85 1012.2
20260831082016 69 0 0.0 1.0 0.00 0.00 0.00 85 1012.2
20260831081536 69 0 0.0 2.0 0.00 0.00 0.00 85 1012.2
20260831081019 69 0 0.0 2.0 0.00 0.00 0.00 85 1012.2
20260831080515 69 0 0.0 2.0 0.00 0.00 0.00 85 1012.3
20260831080036 69 0 0.0 2.0 0.00 0.00 0.00 85 1012.3
20260831075518 69 262 0.0 3.0 0.00 0.00 0.00 85 1012.3
20260831075019 69 262 0.0 3.0 0.00 0.00 0.00 85 1012.3
20260831074538 69 272 0.0 2.0 0.00 0.00 0.00 84 1012.1
20260831074025 69 0 0.0 2.0 0.00 0.00 0.00 84 1012.2
20260831073520 69 0 0.0 0.0 0.00 0.00 0.00 84 1012.2
20260831073046 69 0 0.0 0.0 0.00 0.00 0.00 84 1012.2
20260831072521 69 0 0.0 1.0 0.00 0.00 0.00 83 1012.1
20260831072019 69 0 0.0 1.0 0.00 0.00 0.00 83 1012.0
20260831071537 69 0 0.0 1.0 0.00 0.00 0.00 83 1012.0
20260831071016 69 0 0.0 1.0 0.00 0.00 0.00 84 1012.0
20260831070519 69 0 0.0 1.0 0.00 0.00 0.00 84 1012.0
20260831070048 70 0 0.0 1.0 0.00 0.00 0.00 85 1012.0
20260831065519 69 0 0.0 1.0 0.00 0.00 0.00 85 1011.9
20260831065022 70 0 0.0 2.0 0.00 0.00 0.00 85 1011.9
20260831064540 70 0 0.0 2.0 0.00 0.00 0.00 86 1011.9
20260831064016 70 0 0.0 2.0 0.00 0.00 0.00 86 1011.9
20260831063517 70 0 0.0 1.0 0.00 0.00 0.00 86 1011.9
20260831063038 70 0 0.0 1.0 0.00 0.00 0.00 87 1011.8
20260831062517 70 74 0.0 1.0 0.00 0.00 0.00 87 1011.9
20260831062018 70 0 0.0 1.0 0.00 0.00 0.00 88 1011.9
20260831061536 70 0 0.0 2.0 0.00 0.00 0.00 88 1011.9
20260831061018 70 0 0.0 2.0 0.00 0.00 0.00 89 1011.8
20260831060523 71 74 0.0 2.0 0.00 0.00 0.00 89 1011.9
20260831060041 71 0 0.0 2.0 0.00 0.00 0.00 89 1011.9
20260831055517 71 0 0.0 2.0 0.00 0.00 0.00 89 1011.7
20260831055021 71 180 0.0 3.0 0.00 0.00 0.00 90 1011.8
20260831054537 71 0 0.0 3.0 0.00 0.00 0.00 90 1011.8
20260831054021 71 0 0.0 4.0 0.00 0.00 0.00 90 1011.7
20260831053521 71 0 1.0 4.0 0.00 0.00 0.00 89 1011.8
20260831053036 71 232 2.0 7.0 0.00 0.00 0.00 90 1011.8
20260831052516 71 199 2.0 7.0 0.00 0.00 0.00 89 1011.9
20260831052017 71 223 2.0 6.0 0.00 0.00 0.00 90 1011.8
20260831051536 71 266 2.0 6.0 0.00 0.00 0.00 89 1011.8
20260831051018 72 261 1.0 6.0 0.00 0.00 0.00 89 1011.9
20260831050519 72 263 1.0 7.0 0.00 0.00 0.00 89 1012.0
20260831050055 72 274 1.0 7.0 0.00 0.00 0.00 88 1012.0
20260831045520 72 266 2.0 7.0 0.00 0.00 0.00 88 1011.9
20260831045020 72 257 3.0 7.0 0.00 0.00 0.00 87 1011.8
20260831044546 72 242 2.0 7.0 0.00 0.00 0.00 87 1011.9
20260831044019 72 261 3.0 7.0 0.00 0.00 0.00 87 1011.9
20260831043519 72 265 0.0 3.0 0.00 0.00 0.00 86 1011.9
20260831043039 72 239 0.0 3.0 0.00 0.00 0.00 86 1011.9
20260831042518 72 0 0.0 3.0 0.00 0.00 0.00 86 1011.8
20260831042020 72 0 1.0 3.0 0.00 0.00 0.00 86 1011.8
20260831041535 72 0 1.0 3.0 0.00 0.00 0.00 86 1011.8
20260831041020 72 263 0.0 3.0 0.00 0.00 0.00 86 1011.7
20260831040520 72 0 1.0 3.0 0.00 0.00 0.00 86 1011.6
20260831040038 72 0 0.0 6.0 0.00 0.00 0.00 86 1011.5
20260831035516 72 271 1.0 6.0 0.00 0.00 0.00 86 1011.5
20260831035019 72 286 1.0 4.0 0.00 0.00 0.00 86 1011.4
20260831034537 72 265 2.0 5.0 0.00 0.00 0.00 86 1011.3
20260831034016 72 223 0.0 5.0 0.00 0.00 0.00 86 1011.2
20260831033518 72 263 1.0 5.0 0.00 0.00 0.00 85 1011.0
20260831033037 72 266 1.0 7.0 0.00 0.00 0.00 85 1011.0
20260831032525 72 263 1.0 7.0 0.00 0.00 0.00 85 1010.9
20260831032018 72 246 2.0 7.0 0.00 0.00 0.00 84 1010.9
20260831031543 72 0 2.0 6.0 0.00 0.00 0.00 83 1010.8
20260831031017 72 265 1.0 6.0 0.00 0.00 0.00 83 1010.7
20260831030519 73 252 1.0 6.0 0.00 0.00 0.00 82 1010.7
20260831030033 73 230 2.0 5.0 0.00 0.00 0.00 81 1010.6
20260831025519 73 217 1.0 7.0 0.00 0.00 0.00 81 1010.7
20260831025017 73 280 1.0 7.0 0.00 0.00 0.00 79 1010.7
20260831024557 73 256 2.0 7.0 0.00 0.00 0.00 78 1010.6
20260831024017 73 226 3.0 10.0 0.00 0.00 0.00 76 1010.6
20260831023517 73 228 3.0 10.0 0.00 0.00 0.00 76 1010.7
20260831023040 73 259 4.0 11.0 0.00 0.00 0.00 77 1010.7
20260831022518 73 212 3.0 11.0 0.00 0.00 0.00 77 1010.6
20260831022020 73 239 3.0 9.0 0.00 0.00 0.00 77 1010.7
20260831021535 73 231 1.0 9.0 0.00 0.00 0.00 77 1010.7
20260831021020 73 225 3.0 11.0 0.00 0.00 0.00 78 1010.7
20260831020519 73 229 3.0 13.0 0.00 0.00 0.00 78 1010.7
20260831020059 73 231 4.0 14.0 0.00 0.00 0.00 78 1010.6
20260831015517 73 236 7.0 14.0 0.00 0.00 0.00 79 1010.5
20260831015016 73 248 6.0 12.0 0.00 0.00 0.00 80 1010.6